TimeEST,TemperatureF,Dew PointF,Humidity,Sea Level PressureIn,VisibilityMPH,Wind Direction,Wind SpeedMPH,Gust SpeedMPH,PrecipitationIn,Events,Conditions,WindDirDegrees,DateUTC
12:53 AM,71.1,55.9,59,29.94,10.0,WSW,4.6,-,N/A,,Partly Cloudy,250,2012-11-06 05:53:00
1:53 AM,69.1,59.0,70,29.91,10.0,Calm,Calm,-,N/A,,Partly Cloudy,0,2012-11-06 06:53:00
2:53 AM,66.9,61.0,81,29.90,10.0,Calm,Calm,-,N/A,,Scattered Clouds,0,2012-11-06 07:53:00
3:53 AM,66.9,63.0,87,29.90,10.0,Calm,Calm,-,N/A,,Partly Cloudy,0,2012-11-06 08:53:00
4:53 AM,66.9,63.0,87,29.90,10.0,Calm,Calm,-,N/A,,Scattered Clouds,0,2012-11-06 09:53:00
5:53 AM,66.9,64.0,90,29.92,10.0,Calm,Calm,-,N/A,,Partly Cloudy,0,2012-11-06 10:53:00
6:53 AM,66.0,64.0,93,29.93,9.0,Calm,Calm,-,N/A,,Partly Cloudy,0,2012-11-06 11:53:00
7:53 AM,69.1,64.9,87,29.95,8.0,West,3.5,-,N/A,,Scattered Clouds,260,2012-11-06 12:53:00
8:53 AM,72.0,64.0,76,29.94,10.0,WSW,3.5,-,N/A,,Scattered Clouds,240,2012-11-06 13:53:00
9:53 AM,75.9,63.0,64,29.94,10.0,Variable,3.5,-,N/A,,Scattered Clouds,0,2012-11-06 14:53:00
10:53 AM,79.0,59.0,50,29.92,10.0,West,10.4,-,N/A,,Scattered Clouds,260,2012-11-06 15:53:00
11:53 AM,82.0,57.9,44,29.90,10.0,West,12.7,18.4,N/A,,Scattered Clouds,260,2012-11-06 16:53:00
12:53 PM,82.0,55.0,39,29.86,10.0,WSW,12.7,-,N/A,,Scattered Clouds,250,2012-11-06 17:53:00
1:53 PM,82.0,52.0,35,29.84,10.0,West,16.1,-,N/A,,Scattered Clouds,260,2012-11-06 18:53:00
2:53 PM,82.0,53.1,37,29.83,10.0,WSW,11.5,19.6,N/A,,Partly Cloudy,240,2012-11-06 19:53:00
3:53 PM,81.0,54.0,39,29.83,10.0,WSW,13.8,21.9,N/A,,Partly Cloudy,250,2012-11-06 20:53:00
4:53 PM,80.1,52.0,38,29.84,10.0,WSW,11.5,-,N/A,,Scattered Clouds,250,2012-11-06 21:53:00
5:53 PM,75.9,61.0,60,29.86,10.0,WNW,11.5,-,N/A,,Mostly Cloudy,290,2012-11-06 22:53:00
6:53 PM,75.0,63.0,66,29.86,10.0,WSW,5.8,-,N/A,,Overcast,250,2012-11-06 23:53:00
7:53 PM,73.9,64.0,71,29.87,10.0,WSW,5.8,-,N/A,,Partly Cloudy,240,2012-11-07 00:53:00
8:53 PM,73.0,64.0,73,29.88,10.0,WSW,4.6,-,N/A,,Scattered Clouds,250,2012-11-07 01:53:00
9:53 PM,72.0,64.0,76,29.88,10.0,WSW,5.8,-,N/A,,Partly Cloudy,250,2012-11-07 02:53:00
10:53 PM,72.0,64.0,76,29.88,10.0,West,5.8,-,N/A,,Scattered Clouds,280,2012-11-07 03:53:00
11:53 PM,72.0,64.9,78,29.87,10.0,West,8.1,-,N/A,,Mostly Cloudy,260,2012-11-07 04:53:00